Training

Spin Video     https://www.youtube.com/watch?v=Vj8vdWBMePM&list=UULpWoZCi_X3hPwW6J_RsFEg     … [Read More...]

Weather

METAR FOR KCHA (Issued: Thu, October 23rd 2014 1:53 PM UTC):
KCHA 231353Z 02008G17KT 10SM CLR 12/05 A3020 RMK AO2 SLP226 T01170050

Accomplishments

Marvin Mueller

Congratulations to Marvin Mueller our newest private pilot. Marvin passed his check ride on Friday March 8th. … [Read More...]

Congrats to Randy Sexton

Congratulations to Randy Sexton on becoming our newest Private Pilot at Hixson Aviation. Randy completed his checkride on Monday, March 4, 2013. … [Read More...]

Dallas Bay Skypark - 1A0